Lid_Strength_Index
-1 -0 0 -0 -0 -0 0 0 0 0 0 0 0 0 0 0 0 0 -0 -1 -1 -1 -1 -0 -0 -0 5 10 8 3 -0 -0 4 6 7 8 9 10 12 11 11 11 11 11 10 10 10
-1 -1 -1 0 -0 -0 -0 0 0 -0 -0 -0 0 0 0 0 0 0 0 -0 -1 -1 -1 -0 -0 0 9 11 4 3 5 6 6 7 8 8 9 9 11 11 12 11 11 11 11 11 11
-0 -0 -0 -1 -0 0 0 0 -0 -0 -0 -0 0 0 0 0 0 0 -0 -0 -1 -1 -0 0 1 3 9 8 3 4 5 7 7 7 8 8 8 9 10 12 11 12 13 12 12 12 12
-0 -0 -0 -0 -0 -0 0 1 1 -1 -0 -0 0 0 1 0 0 0 -0 -1 -1 0 0 1 1 6 9 7 4 4 6 6 7 7 7 8 8 9 10 11 12 13 14 15 13 12 13
-0 0 0 0 0 0 -0 0 1 1 0 -0 0 0 0 0 0 0 0 -0 0 0 0 0 6 9 9 5 6 6 7 7 8 8 8 7 9 11 11 14 15 15 16 17 15 13 13
-0 0 0 1 1 1 1 1 -0 0 1 1 1 1 0 0 0 0 -0 -0 1 2 2 3 5 9 9 10 8 8 8 8 9 9 9 10 12 14 15 15 17 16 17 17 17 14 14
0 0 0 0 1 1 1 1 1 1 0 0 1 1 1 1 1 0 1 4 6 7 7 8 8 9 9 9 9 10 9 9 10 11 13 13 14 15 14 14 15 15 17 17 16 14 15
-0 0 0 0 1 1 1 1 1 1 1 1 0 0 1 1 1 1 2 6 7 8 9 7 8 9 9 9 11 11 9 11 12 14 14 15 16 13 14 14 15 16 17 17 16 15 15
1 1 -0 0 1 1 2 2 1 1 1 1 1 1 1 1 1 0 2 4 6 7 9 8 7 8 8 9 11 11 9 11 14 15 15 16 14 14 14 15 16 17 17 18 17 16 16
0 1 1 0 1 1 1 2 2 2 1 1 1 2 2 1 2 3 4 2 5 6 12 11 9 8 9 9 11 10 10 11 14 15 15 16 14 14 16 16 16 18 16 16 16 17 18
0 0 1 1 1 1 2 2 2 2 2 2 1 2 2 1 4 4 3 5 7 8 20 12 11 9 10 10 12 12 11 12 15 15 14 15 15 16 16 15 15 16 16 16 17 17 18
0 1 1 1 1 2 2 2 2 2 2 3 2 2 2 2 3 4 6 7 8 13 19 14 14 14 12 13 14 13 13 12 13 15 16 15 14 14 14 15 15 15 16 17 18 18 22
0 1 1 1 1 2 2 2 2 2 2 3 3 3 3 2 4 6 6 7 13 17 13 15 15 15 14 15 15 14 15 16 16 17 18 16 15 15 15 16 16 17 17 20 21 22 21
0 1 1 2 1 2 2 2 2 2 2 3 3 3 4 3 3 5 5 9 17 14 14 14 15 15 15 15 15 15 16 17 16 16 18 18 19 15 15 15 16 17 17 20 23 23 21
1 1 1 2 2 2 3 2 3 2 2 2 3 3 3 3 5 4 7 15 15 13 12 15 15 17 17 16 16 17 17 17 15 15 16 18 18 16 16 15 15 17 18 16 20 26 22
1 1 1 2 3 2 2 3 3 3 2 2 3 4 4 2 4 4 10 13 12 10 12 14 15 15 18 17 17 17 18 16 15 14 13 15 18 16 16 15 15 16 15 18 19 23 24
1 1 1 2 3 3 2 2 2 2 3 2 4 7 3 2 4 7 13 12 10 9 11 13 13 14 16 17 17 18 17 16 15 15 13 15 15 17 16 17 16 16 17 17 17 18 21
2 1 1 2 3 4 3 2 2 2 3 4 5 10 3 2 9 9 12 11 9 9 9 10 11 11 14 15 17 17 17 15 13 14 15 14 15 19 17 16 16 16 16 16 18 20 20
3 2 1 2 2 3 4 4 2 2 2 5 8 8 5 4 13 12 10 10 9 10 9 9 11 11 12 14 15 16 16 13 12 13 14 13 16 21 18 17 17 17 16 16 17 18 21
3 3 2 1 2 2 3 4 4 2 2 3 9 12 9 9 9 10 11 11 11 8 9 9 10 11 12 12 12 14 15 14 13 13 10 11 15 16 16 17 16 18 17 16 15 21 18
3 2 2 1 2 3 3 4 5 4 2 5 8 11 10 12 11 11 11 11 12 12 9 9 11 10 11 13 13 13 14 14 14 12 13 13 16 17 16 16 16 16 17 17 17 15 17
2 2 2 2 1 3 3 4 4 4 4 8 10 11 11 11 10 11 11 12 12 11 12 12 12 10 10 12 12 13 13 14 14 15 14 14 16 17 18 17 17 18 17 16 16 15 15
1 2 2 2 1 2 3 4 4 5 5 9 11 10 11 11 12 12 11 11 12 10 11 11 10 11 12 11 11 13 11 12 12 14 15 15 17 17 17 19 18 18 18 17 17 16 14
1 1 1 2 2 1 3 3 4 4 5 8 10 10 12 15 12 12 12 11 11 11 11 12 11 13 13 12 12 13 14 14 13 15 13 16 16 16 23 20 22 19 21 17 16 16 17
1 1 1 1 2 2 2 3 3 4 4 7 8 10 13 15 13 14 13 12 11 12 12 13 14 14 12 12 16 17 18 17 19 20 17 16 16 21 21 21 19 20 21 18 17 18 17
1 1 1 1 1 1 2 2 2 3 4 7 8 8 11 14 15 12 14 14 15 16 17 18 16 15 13 14 16 19 20 18 20 21 18 16 16 16 22 22 22 20 19 19 18 21 20
3 2 1 1 1 1 1 1 1 3 3 7 8 7 9 12 13 13 14 14 13 14 17 17 17 16 15 16 18 19 19 18 21 22 21 20 20 18 20 20 19 18 19 18 20 18 19
3 2 1 1 1 1 1 1 1 2 3 7 8 8 10 12 12 12 12 13 14 14 16 17 16 17 17 17 17 18 19 19 20 20 20 19 19 20 20 21 21 18 18 18 16 17 17
3 2 2 1 1 1 1 0 1 1 2 5 10 7 9 12 12 10 11 11 10 10 13 14 13 16 14 16 16 17 20 20 20 20 20 19 17 18 17 18 17 16 16 15 15 16 16